"read_dt","SO2 (ppb)","flags","PMT voltage (V)","lamp voltage (V)","lamp intensity (Hz)","internal temp (C)","react chamber temp (C)","sample flow (l/min)","pres (mmHg)","SO2 bkg (ppb)","SO2 coefficient"
2014-06-21 00:00:00,1902E-3,5C000000,-0724,0839,11999,026.0,045.4,0.488,736.1,01.18,0.508
2014-06-21 00:01:00,1874E-3,5C000000,-0724,0837,12009,026.0,045.4,0.487,736.2,01.18,0.508
2014-06-21 00:02:00,1776E-3,5C000000,-0724,0838,12173,026.0,045.5,0.488,736.2,01.18,0.508
2014-06-21 00:03:00,1838E-3,5C000000,-0724,0839,12173,026.0,045.4,0.488,736.2,01.18,0.508
2014-06-21 00:04:00,1904E-3,5C000000,-0724,0838,12055,026.0,045.4,0.487,736.1,01.18,0.508
2014-06-21 00:05:00,1884E-3,5C000000,-0724,0838,12266,026.0,045.4,0.488,736.2,01.18,0.508
2014-06-21 00:06:00,1862E-3,5C000000,-0724,0837,12174,026.0,045.5,0.488,736.2,01.18,0.508
2014-06-21 00:07:00,1780E-3,5C000000,-0724,0838,12118,026.0,045.5,0.487,736.2,01.18,0.508
2014-06-21 00:08:00,1718E-3,5C000000,-0724,0838,12146,026.0,045.4,0.488,736.2,01.18,0.508
2014-06-21 00:09:00,1895E-3,5C000000,-0724,0839,12195,026.0,045.4,0.487,736.2,01.18,0.508
2014-06-21 00:10:00,1834E-3,5C000000,-0724,0839,12240,026.0,045.4,0.488,736.2,01.18,0.508
2014-06-21 00:11:00,1863E-3,5C000000,-0724,0838,12110,026.0,045.5,0.488,736.2,01.18,0.508
2014-06-21 00:12:00,1789E-3,5C000000,-0724,0839,12121,026.0,045.5,0.487,736.1,01.18,0.508
2014-06-21 00:13:00,1961E-3,5C000000,-0724,0838,12047,026.0,045.4,0.488,736.1,01.18,0.508
2014-06-21 00:14:00,1839E-3,5C000000,-0724,0839,12184,026.0,045.4,0.487,736.1,01.18,0.508
2014-06-21 00:15:00,1884E-3,5C000000,-0724,0838,12107,026.0,045.4,0.488,736.1,01.18,0.508
2014-06-21 00:16:00,1920E-3,5C000000,-0724,0839,11922,026.0,045.4,0.488,736.1,01.18,0.508
2014-06-21 00:17:00,1812E-3,5C000000,-0724,0839,12061,026.0,045.4,0.487,736.1,01.18,0.508
2014-06-21 00:18:00,1884E-3,5C000000,-0724,0838,12120,026.0,045.4,0.488,736.1,01.18,0.508
2014-06-21 00:19:00,1859E-3,5C000000,-0724,0837,12241,026.0,045.4,0.487,736.1,01.18,0.508
2014-06-21 00:20:00,1784E-3,5C000000,-0724,0837,11961,026.0,045.4,0.488,736.1,01.18,0.508
2014-06-21 00:21:00,1857E-3,5C000000,-0724,0839,12041,026.0,045.4,0.488,736.1,01.18,0.508
2014-06-21 00:22:00,1850E-3,5C000000,-0724,0837,12254,026.0,045.4,0.487,736.1,01.18,0.508
2014-06-21 00:23:00,1818E-3,5C000000,-0724,0838,12288,026.0,045.4,0.488,736.1,01.18,0.508
2014-06-21 00:24:00,1792E-3,5C000000,-0724,0838,12141,026.0,045.4,0.487,736.0,01.18,0.508
2014-06-21 00:25:00,1736E-3,5C000000,-0724,0838,12159,026.0,045.5,0.488,736.0,01.18,0.508
2014-06-21 00:26:00,1941E-3,5C000000,-0724,0838,12185,026.0,045.4,0.488,736.0,01.18,0.508
2014-06-21 00:27:00,1820E-3,5C000000,-0724,0839,11862,026.0,045.4,0.487,735.9,01.18,0.508
2014-06-21 00:28:00,1795E-3,5C000000,-0724,0839,12037,026.0,045.4,0.488,735.9,01.18,0.508
2014-06-21 00:29:00,1798E-3,5C000000,-0724,0837,12175,026.0,045.5,0.488,736.0,01.18,0.508
2014-06-21 00:30:00,1856E-3,5C000000,-0724,0838,12181,026.0,045.5,0.487,736.0,01.18,0.508
2014-06-21 00:31:00,1925E-3,5C000000,-0724,0838,12192,026.0,045.4,0.488,736.0,01.18,0.508
2014-06-21 00:32:00,1816E-3,5C000000,-0724,0838,12164,026.0,045.4,0.487,736.0,01.18,0.508
2014-06-21 00:33:00,1922E-3,5C000000,-0724,0838,12096,026.0,045.4,0.488,736.0,01.18,0.508
2014-06-21 00:34:00,1838E-3,5C000000,-0724,0838,12077,026.0,045.4,0.488,736.0,01.18,0.508
2014-06-21 00:35:00,1863E-3,5C000000,-0724,0839,12162,026.0,045.4,0.487,736.0,01.18,0.508
2014-06-21 00:36:00,1850E-3,5C000000,-0724,0837,12077,026.0,045.4,0.488,736.0,01.18,0.508
2014-06-21 00:37:00,1879E-3,5C000000,-0724,0838,12104,026.0,045.4,0.487,736.0,01.18,0.508
2014-06-21 00:38:00,1718E-3,5C000000,-0724,0839,12253,026.0,045.4,0.488,735.9,01.18,0.508
2014-06-21 00:39:00,1872E-3,5C000000,-0724,0838,12061,026.0,045.4,0.488,735.9,01.18,0.508
2014-06-21 00:40:00,1888E-3,5C000000,-0724,0839,12182,026.0,045.4,0.487,735.8,01.18,0.508
2014-06-21 00:41:00,1849E-3,5C000000,-0724,0838,12066,026.0,045.4,0.488,735.8,01.18,0.508
2014-06-21 00:42:00,1760E-3,5C000000,-0724,0837,12058,026.0,045.4,0.487,735.8,01.18,0.508
2014-06-21 00:43:00,1969E-3,5C000000,-0724,0838,12162,026.0,045.4,0.488,735.7,01.18,0.508
2014-06-21 00:44:00,1811E-3,5C000000,-0724,0838,12254,026.0,045.4,0.488,735.7,01.18,0.508
2014-06-21 00:45:00,1765E-3,5C000000,-0724,0838,12056,026.0,045.4,0.487,735.6,01.18,0.508
2014-06-21 00:46:00,1739E-3,5C000000,-0724,0838,12232,026.0,045.4,0.488,735.6,01.18,0.508
2014-06-21 00:47:00,1908E-3,5C000000,-0724,0839,12134,026.0,045.4,0.488,735.6,01.18,0.508
2014-06-21 00:48:00,1803E-3,5C000000,-0724,0837,12130,026.0,045.4,0.487,735.6,01.18,0.508
2014-06-21 00:49:00,1832E-3,5C000000,-0724,0839,12023,026.0,045.4,0.488,735.5,01.18,0.508
2014-06-21 00:50:00,1826E-3,5C000000,-0724,0838,12082,026.0,045.4,0.487,735.5,01.18,0.508
2014-06-21 00:51:00,1850E-3,5C000000,-0724,0838,11999,026.0,045.4,0.487,735.5,01.18,0.508
2014-06-21 00:52:00,1801E-3,5C000000,-0724,0838,12181,026.0,045.4,0.488,735.5,01.18,0.508
2014-06-21 00:53:00,1830E-3,5C000000,-0724,0839,12093,026.0,045.4,0.487,735.5,01.18,0.508
2014-06-21 00:54:00,1807E-3,5C000000,-0724,0837,12050,026.0,045.4,0.487,735.5,01.18,0.508
2014-06-21 00:55:00,1787E-3,5C000000,-0724,0838,12194,026.0,045.4,0.488,735.6,01.18,0.508
2014-06-21 00:56:00,1842E-3,5C000000,-0724,0838,12138,026.0,045.4,0.487,735.6,01.18,0.508
2014-06-21 00:57:00,1861E-3,5C000000,-0724,0837,12179,026.0,045.4,0.487,735.6,01.18,0.508
2014-06-21 00:58:00,1817E-3,5C000000,-0724,0838,12089,026.0,045.4,0.488,735.6,01.18,0.508
2014-06-21 00:59:00,1818E-3,5C000000,-0724,0839,12258,026.0,045.4,0.487,735.6,01.18,0.508
2014-06-21 01:00:00,1732E-3,5C000000,-0724,0838,12211,026.0,045.4,0.487,735.6,01.18,0.508
2014-06-21 01:01:00,1806E-3,5C000000,-0724,0839,12199,026.0,045.4,0.488,735.6,01.18,0.508
2014-06-21 01:02:00,1798E-3,5C000000,-0724,0838,12151,026.0,045.4,0.487,735.6,01.18,0.508
2014-06-21 01:03:00,1917E-3,5C000000,-0724,0838,12093,026.0,045.4,0.487,735.6,01.18,0.508
2014-06-21 01:04:00,1810E-3,5C000000,-0724,0839,11973,026.0,045.4,0.488,735.6,01.18,0.508
2014-06-21 01:05:00,1755E-3,5C000000,-0724,0838,12122,026.0,045.4,0.487,735.5,01.18,0.508
2014-06-21 01:06:00,1839E-3,5C000000,-0724,0838,11863,026.0,045.4,0.487,735.5,01.18,0.508
2014-06-21 01:07:00,1903E-3,5C000000,-0724,0839,12106,026.0,045.4,0.488,735.5,01.18,0.508
2014-06-21 01:08:00,1882E-3,5C000000,-0724,0839,12190,026.0,045.4,0.487,735.4,01.18,0.508
2014-06-21 01:09:00,1657E-3,5C000000,-0724,0839,12211,026.0,045.4,0.487,735.4,01.18,0.508
2014-06-21 01:10:00,1839E-3,5C000000,-0724,0837,12064,026.0,045.4,0.488,735.4,01.18,0.508
2014-06-21 01:11:00,1775E-3,5C000000,-0724,0838,12160,026.0,045.4,0.487,735.4,01.18,0.508
2014-06-21 01:12:00,1887E-3,5C000000,-0724,0838,12137,026.0,045.4,0.487,735.4,01.18,0.508
2014-06-21 01:13:00,1679E-3,5C000000,-0724,0838,12078,026.0,045.4,0.488,735.4,01.18,0.508
2014-06-21 01:14:00,1814E-3,5C000000,-0724,0839,12332,026.0,045.4,0.487,735.4,01.18,0.508
2014-06-21 01:15:00,1870E-3,5C000000,-0724,0838,12274,026.0,045.4,0.487,735.5,01.18,0.508
2014-06-21 01:16:00,2000E-3,5C000000,-0724,0839,12246,026.0,045.4,0.488,735.5,01.18,0.508
2014-06-21 01:17:00,1891E-3,5C000000,-0724,0838,12185,026.0,045.4,0.487,735.4,01.18,0.508
2014-06-21 01:18:00,1750E-3,5C000000,-0724,0838,11961,026.0,045.4,0.487,735.5,01.18,0.508
2014-06-21 01:19:00,1735E-3,5C000000,-0724,0838,12224,026.0,045.4,0.488,735.4,01.18,0.508
2014-06-21 01:20:00,1855E-3,5C000000,-0724,0838,11749,026.0,045.4,0.487,735.4,01.18,0.508
2014-06-21 01:21:00,1882E-3,5C000000,-0724,0838,12154,026.0,045.4,0.487,735.5,01.18,0.508
2014-06-21 01:22:00,1886E-3,5C000000,-0724,0838,12043,026.0,045.5,0.488,735.4,01.18,0.508
2014-06-21 01:23:00,1802E-3,5C000000,-0724,0838,12037,026.0,045.4,0.487,735.4,01.18,0.508
2014-06-21 01:24:00,1803E-3,5C000000,-0724,0839,12160,026.0,045.4,0.487,735.4,01.18,0.508
2014-06-21 01:25:00,1768E-3,5C000000,-0724,0839,12039,026.0,045.4,0.488,735.4,01.18,0.508
2014-06-21 01:26:00,1817E-3,5C000000,-0724,0840,12190,026.0,045.4,0.488,735.4,01.18,0.508
2014-06-21 01:27:00,1739E-3,5C000000,-0724,0839,12133,026.0,045.4,0.487,735.4,01.18,0.508
2014-06-21 01:28:00,1762E-3,5C000000,-0724,0837,12191,026.0,045.4,0.487,735.4,01.18,0.508
2014-06-21 01:29:00,1802E-3,5C000000,-0724,0839,11922,026.0,045.4,0.488,735.3,01.18,0.508
2014-06-21 01:30:00,1908E-3,5C000000,-0724,0838,12271,026.0,045.4,0.487,735.3,01.18,0.508
2014-06-21 01:31:00,1871E-3,5C000000,-0724,0838,11950,026.0,045.4,0.487,735.3,01.18,0.508
2014-06-21 01:32:00,1965E-3,5C000000,-0724,0838,12209,026.0,045.4,0.488,735.3,01.18,0.508
2014-06-21 01:33:00,1955E-3,5C000000,-0724,0838,12195,026.0,045.4,0.487,735.2,01.18,0.508
2014-06-21 01:34:00,1729E-3,5C000000,-0724,0838,12017,026.0,045.4,0.487,735.2,01.18,0.508
2014-06-21 01:35:00,1922E-3,5C000000,-0724,0839,12317,026.0,045.5,0.488,735.2,01.18,0.508
2014-06-21 01:36:00,1723E-3,5C000000,-0724,0838,12206,026.0,045.4,0.487,735.3,01.18,0.508
2014-06-21 01:37:00,1776E-3,5C000000,-0724,0838,12257,026.0,045.4,0.487,735.3,01.18,0.508
2014-06-21 01:38:00,1956E-3,5C000000,-0724,0838,12183,026.0,045.4,0.488,735.4,01.18,0.508
2014-06-21 01:39:00,1722E-3,5C000000,-0724,0838,12167,026.0,045.4,0.487,735.4,01.18,0.508
2014-06-21 01:40:00,1848E-3,5C000000,-0724,0839,12194,026.0,045.4,0.487,735.5,01.18,0.508
2014-06-21 01:41:00,1883E-3,5C000000,-0724,0837,12110,026.0,045.4,0.488,735.5,01.18,0.508
2014-06-21 01:42:00,1754E-3,5C000000,-0724,0840,12277,026.0,045.4,0.487,735.5,01.18,0.508
2014-06-21 01:43:00,1858E-3,5C000000,-0724,0839,12199,026.0,045.4,0.487,735.5,01.18,0.508
2014-06-21 01:44:00,1736E-3,5C000000,-0724,0838,12102,026.0,045.4,0.488,735.5,01.18,0.508
2014-06-21 01:45:00,1821E-3,5C000000,-0724,0838,12174,026.0,045.4,0.487,735.4,01.18,0.508
2014-06-21 01:46:00,1679E-3,5C000000,-0724,0838,11981,026.0,045.4,0.487,735.4,01.18,0.508
2014-06-21 01:47:00,1796E-3,5C000000,-0724,0839,12139,026.0,045.4,0.488,735.4,01.18,0.508
2014-06-21 01:48:00,1791E-3,5C000000,-0724,0839,12192,026.0,045.4,0.487,735.3,01.18,0.508
2014-06-21 01:49:00,1887E-3,5C000000,-0724,0838,12051,026.0,045.4,0.487,735.3,01.18,0.508
2014-06-21 01:50:00,1900E-3,5C000000,-0724,0838,11993,026.0,045.4,0.488,735.3,01.18,0.508
2014-06-21 01:51:00,1871E-3,5C000000,-0724,0839,12101,026.0,045.4,0.487,735.3,01.18,0.508
2014-06-21 01:52:00,1809E-3,5C000000,-0724,0837,12143,026.0,045.4,0.487,735.3,01.18,0.508
2014-06-21 01:53:00,1716E-3,5C000000,-0724,0838,12144,026.0,045.4,0.488,735.3,01.18,0.508
2014-06-21 01:54:00,1977E-3,5C000000,-0724,0838,11878,026.0,045.4,0.488,735.3,01.18,0.508
2014-06-21 01:55:00,1846E-3,5C000000,-0724,0837,12157,026.0,045.4,0.487,735.3,01.18,0.508
2014-06-21 01:56:00,1969E-3,5C000000,-0724,0838,12172,026.0,045.4,0.487,735.3,01.18,0.508
2014-06-21 01:57:00,1887E-3,5C000000,-0724,0839,11963,026.0,045.4,0.488,735.3,01.18,0.508
2014-06-21 01:58:00,1827E-3,5C000000,-0724,0839,12158,026.0,045.4,0.487,735.3,01.18,0.508
2014-06-21 01:59:00,1805E-3,5C000000,-0724,0839,12224,026.0,045.5,0.487,735.3,01.18,0.508
2014-06-21 02:00:00,1787E-3,5C000000,-0724,0837,12119,026.0,045.4,0.488,735.3,01.18,0.508
2014-06-21 02:01:00,1849E-3,5C000000,-0724,0837,12039,026.0,045.4,0.487,735.4,01.18,0.508
2014-06-21 02:02:00,1902E-3,5C000000,-0724,0840,12100,026.0,045.4,0.487,735.3,01.18,0.508
2014-06-21 02:03:00,1760E-3,5C000000,-0724,0839,12044,026.0,045.4,0.488,735.3,01.18,0.508
2014-06-21 02:04:00,1944E-3,5C000000,-0724,0838,11978,026.0,045.4,0.487,735.3,01.18,0.508
2014-06-21 02:05:00,1860E-3,5C000000,-0724,0839,12174,026.0,045.4,0.487,735.3,01.18,0.508
2014-06-21 02:06:00,1922E-3,5C000000,-0724,0837,12208,026.0,045.5,0.488,735.4,01.18,0.508
2014-06-21 02:07:00,1796E-3,5C000000,-0724,0838,12100,026.0,045.4,0.487,735.4,01.18,0.508
2014-06-21 02:08:00,1900E-3,5C000000,-0724,0839,12170,026.0,045.4,0.487,735.4,01.18,0.508
2014-06-21 02:09:00,1783E-3,5C000000,-0724,0837,12119,026.0,045.4,0.488,735.3,01.18,0.508
2014-06-21 02:10:00,1766E-3,5C000000,-0724,0838,12028,026.0,045.4,0.488,735.3,01.18,0.508
2014-06-21 02:11:00,1831E-3,5C000000,-0724,0838,12145,026.0,045.4,0.487,735.3,01.18,0.508
2014-06-21 02:12:00,1720E-3,5C000000,-0724,0838,11899,026.0,045.4,0.487,735.3,01.18,0.508
2014-06-21 02:13:00,1917E-3,5C000000,-0724,0839,12025,026.0,045.5,0.488,735.3,01.18,0.508
2014-06-21 02:14:00,1794E-3,5C000000,-0724,0838,12054,026.0,045.4,0.487,735.3,01.18,0.508
2014-06-21 02:15:00,1746E-3,5C000000,-0724,0839,12230,026.0,045.5,0.487,735.2,01.18,0.508
2014-06-21 02:16:00,1841E-3,5C000000,-0724,0839,12012,026.0,045.4,0.488,735.2,01.18,0.508
2014-06-21 02:17:00,1877E-3,5C000000,-0724,0838,11988,026.0,045.4,0.487,735.2,01.18,0.508
2014-06-21 02:18:00,1796E-3,5C000000,-0724,0838,12049,026.0,045.5,0.487,735.1,01.18,0.508
2014-06-21 02:19:00,1932E-3,5C000000,-0724,0838,11997,026.0,045.4,0.488,735.2,01.18,0.508
2014-06-21 02:20:00,1825E-3,5C000000,-0724,0839,12103,026.0,045.4,0.487,735.2,01.18,0.508
2014-06-21 02:21:00,1744E-3,5C000000,-0724,0839,12255,026.0,045.4,0.487,735.1,01.18,0.508
2014-06-21 02:22:00,1895E-3,5C000000,-0724,0839,12250,026.0,045.5,0.488,735.1,01.18,0.508
2014-06-21 02:23:00,1951E-3,5C000000,-0724,0838,12104,026.0,045.5,0.487,735.1,01.18,0.508
2014-06-21 02:24:00,1819E-3,5C000000,-0724,0838,12073,026.0,045.4,0.487,735.1,01.18,0.508
2014-06-21 02:25:00,1772E-3,5C000000,-0724,0838,12050,026.0,045.4,0.487,735.1,01.18,0.508
2014-06-21 02:26:00,1833E-3,5C000000,-0724,0838,12012,026.0,045.4,0.488,735.1,01.18,0.508
2014-06-21 02:27:00,1882E-3,5C000000,-0724,0839,12145,026.0,045.4,0.487,735.1,01.18,0.508
2014-06-21 02:28:00,1854E-3,5C000000,-0724,0838,12096,026.0,045.4,0.487,735.1,01.18,0.508
2014-06-21 02:29:00,1897E-3,5C000000,-0724,0838,12115,026.0,045.4,0.488,735.1,01.18,0.508
2014-06-21 02:30:00,1841E-3,5C000000,-0724,0837,12074,026.0,045.4,0.487,735.1,01.18,0.508
2014-06-21 02:31:00,1935E-3,5C000000,-0724,0838,12146,026.0,045.4,0.487,735.1,01.18,0.508
2014-06-21 02:32:00,1870E-3,5C000000,-0724,0838,12019,026.0,045.4,0.487,735.1,01.18,0.508
2014-06-21 02:33:00,1745E-3,5C000000,-0724,0838,12186,026.0,045.4,0.488,735.1,01.18,0.508
2014-06-21 02:34:00,1787E-3,5C000000,-0724,0838,12058,026.0,045.4,0.487,735.1,01.18,0.508
2014-06-21 02:35:00,1841E-3,5C000000,-0724,0838,12204,026.0,045.4,0.487,735.1,01.18,0.508
2014-06-21 02:36:00,1750E-3,5C000000,-0724,0839,12102,026.0,045.4,0.488,735.1,01.18,0.508
2014-06-21 02:37:00,1941E-3,5C000000,-0724,0838,12208,026.0,045.4,0.487,735.1,01.18,0.508
2014-06-21 02:38:00,1792E-3,5C000000,-0724,0838,12057,026.0,045.4,0.487,735.1,01.18,0.508
2014-06-21 02:39:00,1748E-3,5C000000,-0724,0838,12175,026.0,045.4,0.488,735.1,01.18,0.508
2014-06-21 02:40:00,1910E-3,5C000000,-0724,0837,12011,026.0,045.4,0.487,735.1,01.18,0.508
2014-06-21 02:41:00,1853E-3,5C000000,-0724,0838,12175,026.0,045.4,0.487,735.1,01.18,0.508
2014-06-21 02:42:00,1913E-3,5C000000,-0724,0838,12128,026.0,045.4,0.487,735.1,01.18,0.508
2014-06-21 02:43:00,1788E-3,5C000000,-0724,0839,12108,026.0,045.4,0.488,735.1,01.18,0.508
2014-06-21 02:44:00,1855E-3,5C000000,-0724,0839,12158,026.0,045.4,0.487,735.0,01.18,0.508
2014-06-21 02:45:00,1904E-3,5C000000,-0724,0837,12207,026.0,045.4,0.487,735.0,01.18,0.508
2014-06-21 02:46:00,1825E-3,5C000000,-0724,0840,12210,026.0,045.4,0.488,735.0,01.18,0.508
2014-06-21 02:47:00,1907E-3,5C000000,-0724,0839,12105,026.0,045.4,0.487,735.0,01.18,0.508
2014-06-21 02:48:00,1809E-3,5C000000,-0724,0839,12213,026.0,045.4,0.487,735.0,01.18,0.508
2014-06-21 02:49:00,1822E-3,5C000000,-0724,0838,11885,026.0,045.4,0.487,735.0,01.18,0.508
2014-06-21 02:50:00,1773E-3,5C000000,-0724,0838,12148,026.0,045.4,0.488,735.0,01.18,0.508
2014-06-21 02:51:00,1920E-3,5C000000,-0724,0838,12265,026.0,045.4,0.487,735.0,01.18,0.508
2014-06-21 02:52:00,1887E-3,5C000000,-0724,0839,12046,026.0,045.4,0.487,735.0,01.18,0.508
2014-06-21 02:53:00,1945E-3,5C000000,-0724,0837,12045,026.0,045.4,0.487,735.0,01.18,0.508
2014-06-21 02:54:00,1805E-3,5C000000,-0724,0839,12095,026.0,045.4,0.488,735.0,01.18,0.508
2014-06-21 02:55:00,1951E-3,5C000000,-0724,0838,12171,026.0,045.4,0.487,734.9,01.18,0.508
2014-06-21 02:56:00,1874E-3,5C000000,-0724,0838,12242,026.0,045.4,0.487,734.9,01.18,0.508
2014-06-21 02:57:00,1861E-3,5C000000,-0724,0839,11995,026.0,045.4,0.487,734.8,01.18,0.508
2014-06-21 02:58:00,1987E-3,5C000000,-0724,0838,12146,026.0,045.4,0.488,734.8,01.18,0.508
2014-06-21 02:59:00,1894E-3,5C000000,-0724,0839,12398,025.9,045.4,0.487,734.7,01.18,0.508
2014-06-21 03:00:00,1902E-3,5C000000,-0724,0839,12340,025.9,045.4,0.487,734.7,01.18,0.508
2014-06-21 03:01:00,1733E-3,5C000000,-0724,0837,12125,025.9,045.4,0.487,734.7,01.18,0.508
2014-06-21 03:02:00,1793E-3,5C000000,-0724,0839,12185,025.9,045.5,0.488,734.6,01.18,0.508
2014-06-21 03:03:00,1861E-3,5C000000,-0724,0838,12158,025.9,045.4,0.487,734.7,01.18,0.508
2014-06-21 03:04:00,1703E-3,5C000000,-0724,0838,12179,026.0,045.4,0.487,734.7,01.18,0.508
2014-06-21 03:05:00,1797E-3,5C000000,-0724,0838,12165,025.9,045.4,0.487,734.7,01.18,0.508
2014-06-21 03:06:00,1686E-3,5C000000,-0724,0837,12087,025.9,045.4,0.488,734.7,01.18,0.508
2014-06-21 03:07:00,1841E-3,5C000000,-0724,0838,12120,025.9,045.4,0.487,734.7,01.18,0.508
2014-06-21 03:08:00,1885E-3,5C000000,-0724,0838,12170,025.9,045.4,0.487,734.7,01.18,0.508
2014-06-21 03:09:00,1835E-3,5C000000,-0724,0838,12263,025.9,045.4,0.487,734.7,01.18,0.508
2014-06-21 03:10:00,1913E-3,5C000000,-0724,0839,12100,025.9,045.4,0.487,734.7,01.18,0.508
2014-06-21 03:11:00,1829E-3,5C000000,-0724,0839,11982,025.9,045.4,0.487,734.7,01.18,0.508
2014-06-21 03:12:00,1775E-3,5C000000,-0724,0838,12002,025.9,045.4,0.487,734.7,01.18,0.508
2014-06-21 03:13:00,1916E-3,5C000000,-0724,0839,12135,026.0,045.5,0.487,734.7,01.18,0.508
2014-06-21 03:14:00,1835E-3,5C000000,-0724,0838,12215,025.9,045.5,0.488,734.7,01.18,0.508
2014-06-21 03:15:00,1916E-3,5C000000,-0724,0838,12096,025.9,045.4,0.487,734.7,01.18,0.508
2014-06-21 03:16:00,1889E-3,5C000000,-0724,0838,12062,026.0,045.4,0.487,734.7,01.18,0.508
2014-06-21 03:17:00,1814E-3,5C000000,-0724,0838,12015,026.0,045.4,0.487,734.7,01.18,0.508
2014-06-21 03:18:00,1870E-3,5C000000,-0724,0837,11912,026.0,045.4,0.488,734.7,01.18,0.508
2014-06-21 03:19:00,1807E-3,5C000000,-0724,0838,12114,026.0,045.4,0.487,734.8,01.18,0.508
2014-06-21 03:20:00,1726E-3,5C000000,-0724,0837,12156,026.0,045.4,0.487,734.7,01.18,0.508
2014-06-21 03:21:00,1725E-3,5C000000,-0724,0838,12091,026.0,045.5,0.487,734.7,01.18,0.508
2014-06-21 03:22:00,1991E-3,5C000000,-0724,0838,12083,026.0,045.4,0.487,734.7,01.18,0.508
2014-06-21 03:23:00,1814E-3,5C000000,-0724,0838,12048,026.0,045.4,0.487,734.6,01.18,0.508
2014-06-21 03:24:00,1754E-3,5C000000,-0724,0838,12035,026.0,045.4,0.487,734.6,01.18,0.508
2014-06-21 03:25:00,1875E-3,5C000000,-0724,0838,11974,025.9,045.5,0.487,734.6,01.18,0.508
2014-06-21 03:26:00,1765E-3,5C000000,-0724,0839,11974,025.9,045.4,0.487,734.6,01.18,0.508
2014-06-21 03:27:00,1811E-3,5C000000,-0724,0837,12254,026.0,045.4,0.487,734.6,01.18,0.508
2014-06-21 03:28:00,1877E-3,5C000000,-0724,0839,12052,025.9,045.4,0.487,734.6,01.18,0.508
2014-06-21 03:29:00,1883E-3,5C000000,-0724,0838,12128,026.0,045.4,0.487,734.6,01.18,0.508
2014-06-21 03:30:00,1811E-3,5C000000,-0724,0837,12044,025.9,045.4,0.487,734.6,01.18,0.508
2014-06-21 03:31:00,1907E-3,5C000000,-0724,0838,12162,026.0,045.5,0.487,734.5,01.18,0.508
2014-06-21 03:32:00,1794E-3,5C000000,-0724,0838,12133,025.9,045.4,0.487,734.4,01.18,0.508
2014-06-21 03:33:00,1774E-3,5C000000,-0724,0838,12190,025.9,045.4,0.487,734.4,01.18,0.508
2014-06-21 03:34:00,1743E-3,5C000000,-0724,0839,12325,025.9,045.4,0.487,734.4,01.18,0.508
2014-06-21 03:35:00,1814E-3,5C000000,-0724,0837,12266,025.9,045.4,0.487,734.4,01.18,0.508
2014-06-21 03:36:00,1856E-3,5C000000,-0724,0839,12262,025.9,045.4,0.487,734.4,01.18,0.508
2014-06-21 03:37:00,1735E-3,5C000000,-0724,0838,11997,025.9,045.4,0.487,734.4,01.18,0.508
2014-06-21 03:38:00,1948E-3,5C000000,-0724,0838,12196,026.0,045.4,0.487,734.4,01.18,0.508
2014-06-21 03:39:00,1916E-3,5C000000,-0724,0838,12192,026.0,045.4,0.487,734.5,01.18,0.508
2014-06-21 03:40:00,1754E-3,5C000000,-0724,0837,12228,026.0,045.4,0.487,734.5,01.18,0.508
2014-06-21 03:41:00,1841E-3,5C000000,-0724,0838,12157,026.0,045.4,0.487,734.5,01.18,0.508
2014-06-21 03:42:00,1874E-3,5C000000,-0724,0838,12144,025.9,045.4,0.487,734.5,01.18,0.508
2014-06-21 03:43:00,1777E-3,5C000000,-0724,0839,12255,025.9,045.5,0.487,734.5,01.18,0.508
2014-06-21 03:44:00,1788E-3,5C000000,-0724,0839,12185,026.0,045.4,0.487,734.5,01.18,0.508
2014-06-21 03:45:00,1747E-3,5C000000,-0724,0838,12258,026.0,045.4,0.487,734.4,01.18,0.508
2014-06-21 03:46:00,1970E-3,5C000000,-0724,0838,12277,026.0,045.4,0.487,734.3,01.18,0.508
2014-06-21 03:47:00,1866E-3,5C000000,-0724,0837,12043,025.9,045.4,0.487,734.3,01.18,0.508
2014-06-21 03:48:00,1921E-3,5C000000,-0724,0837,12098,025.9,045.4,0.487,734.3,01.18,0.508
2014-06-21 03:49:00,1956E-3,5C000000,-0724,0838,12086,025.9,045.4,0.487,734.3,01.18,0.508
2014-06-21 03:50:00,1763E-3,5C000000,-0724,0839,12153,025.9,045.4,0.487,734.3,01.18,0.508
2014-06-21 03:51:00,1978E-3,5C000000,-0724,0837,12080,025.9,045.4,0.487,734.3,01.18,0.508
2014-06-21 03:52:00,1838E-3,5C000000,-0724,0839,12136,026.0,045.5,0.487,734.3,01.18,0.508
2014-06-21 03:53:00,1805E-3,5C000000,-0724,0838,11994,025.9,045.4,0.487,734.3,01.18,0.508
2014-06-21 03:54:00,1767E-3,5C000000,-0724,0838,12180,026.0,045.4,0.487,734.3,01.18,0.508
2014-06-21 03:55:00,2000E-3,5C000000,-0724,0838,12199,026.0,045.4,0.487,734.3,01.18,0.508
2014-06-21 03:56:00,2017E-3,5C000000,-0724,0838,12046,026.0,045.4,0.487,734.3,01.18,0.508
2014-06-21 03:57:00,1618E-3,5C000000,-0724,0838,11950,026.0,045.5,0.487,734.3,01.18,0.508
2014-06-21 03:58:00,1886E-3,5C000000,-0724,0839,12082,026.0,045.4,0.487,734.2,01.18,0.508
2014-06-21 03:59:00,1708E-3,5C000000,-0724,0839,11938,026.0,045.4,0.487,734.2,01.18,0.508
2014-06-21 04:00:00,1913E-3,5C000000,-0724,0838,12023,026.0,045.4,0.487,734.2,01.18,0.508
2014-06-21 04:01:00,1831E-3,5C000000,-0724,0837,12167,026.0,045.4,0.487,734.3,01.18,0.508
2014-06-21 04:02:00,1750E-3,5C000000,-0724,0838,12220,025.9,045.4,0.487,734.3,01.18,0.508
2014-06-21 04:03:00,1733E-3,5C000000,-0724,0837,12197,025.9,045.5,0.487,734.2,01.18,0.508
2014-06-21 04:04:00,1828E-3,5C000000,-0724,0837,12119,025.9,045.5,0.487,734.3,01.18,0.508
2014-06-21 04:05:00,1825E-3,5C000000,-0724,0838,12007,025.9,045.5,0.487,734.3,01.18,0.508
2014-06-21 04:06:00,1830E-3,5C000000,-0724,0838,12153,025.9,045.4,0.487,734.3,01.18,0.508
2014-06-21 04:07:00,1840E-3,5C000000,-0724,0839,12163,026.0,045.4,0.487,734.3,01.18,0.508
2014-06-21 04:08:00,1923E-3,5C000000,-0724,0839,11962,026.0,045.4,0.487,734.2,01.18,0.508
2014-06-21 04:09:00,1902E-3,5C000000,-0724,0839,12268,025.9,045.4,0.487,734.2,01.18,0.508
2014-06-21 04:10:00,1816E-3,5C000000,-0724,0839,12217,025.9,045.4,0.487,734.2,01.18,0.508
2014-06-21 04:11:00,1834E-3,5C000000,-0724,0839,12186,025.9,045.4,0.487,734.2,01.18,0.508
2014-06-21 04:12:00,1775E-3,5C000000,-0724,0838,12153,025.9,045.4,0.487,734.2,01.18,0.508
2014-06-21 04:13:00,1871E-3,5C000000,-0724,0838,12252,026.0,045.4,0.487,734.1,01.19,0.508
2014-06-21 04:14:00,1917E-3,5C000000,-0724,0838,12096,025.9,045.4,0.487,734.1,01.19,0.508
2014-06-21 04:15:00,1848E-3,5C000000,-0724,0839,12139,025.9,045.4,0.487,734.1,01.19,0.508
2014-06-21 04:16:00,1815E-3,5C000000,-0724,0838,12157,025.9,045.4,0.487,734.1,01.19,0.508
2014-06-21 04:17:00,1803E-3,5C000000,-0724,0837,12063,026.0,045.4,0.487,734.0,01.19,0.508
2014-06-21 04:18:00,1853E-3,5C000000,-0724,0839,12144,025.9,045.4,0.487,734.1,01.19,0.508
2014-06-21 04:19:00,1837E-3,5C000000,-0724,0838,12117,026.0,045.4,0.487,734.1,01.19,0.508
2014-06-21 04:20:00,1972E-3,5C000000,-0724,0838,12010,026.0,045.4,0.487,734.1,01.19,0.508